Avoca, PA

5:27 AM EDT on September 17, 2019 (GMT -0400)
Wilkes-Barre-Scranton International

Weather History for KAVP - July, 2019

Change the Weather History Date:

Monday, July 22, 2019

  Actual Average Record
Temperature  
Mean Temperature 73 °F 72 °F  
Max Temperature 79 °F 82 °F 98 °F (1955)
Min Temperature 66 °F 61 °F 50 °F (1950)
Degree Days  
Heating Degree Days 0 0  
Month to date heating degree days 0 0  
Since 1 June heating degree days 32 54  
Since 1 July heating degree days 0 0  
Cooling Degree Days 8 7  
Month to date cooling degree days 262 149  
Year to date cooling degree days 427 303  
Since 1 June cooling degree days 377 266  
Growing Degree Days 22 (Base 50)    
Moisture  
Dew Point 68 °F    
Average Humidity 87    
Maximum Humidity 100    
Minimum Humidity 74    
Precipitation  
Precipitation 1.88 in 0.13 in 1.88 in (2019)
Month to date precipitation 6.88 2.62  
Year to date precipitation 31.58 20.45  
Sea Level Pressure  
Sea Level Pressure 29.82 in    
Wind  
Wind Speed 4 mph (NW)    
Max Wind Speed 14 mph    
Max Gust Speed 18 mph    
Visibility 6 miles    
Events Fog , Rain , Thunderstorm    
T = Trace of Precipitation, MM = Missing Value Source: NWS Daily Summary

Daily Weather History Graph

Daily Weather History Graph

Search for Another Location

Airport or City:

Astronomy

Jul. 22, 2019 Rise Set
Actual Time 5:48 AM EDT 8:29 PM EDT
Civil Twilight 5:16 AM EDT 9:01 PM EDT
Nautical Twilight 4:35 AM EDT 9:42 PM EDT
Astronomical Twilight 3:49 AM EDT 10:27 PM EDT
Moon 11:46 PM EDT (7/22) 11:06 AM EDT (7/22)
Length of Visible Light 15h 45m
Length of Day
14h 41m
Waning Gibbous, 72% of the Moon is Illuminated
Jul 22
Waning Gibbous
Jul 24
Last Quarter
Jul 31
New
Aug 7
First Quarter
Aug 15
Full

Hourly Weather History & Observations

Time (EDT) Temp. Dew Point Humidity Pressure Visibility Wind Dir Wind Speed Gust Speed Precip Events Conditions
12:54 AM 75.0 °F 72.0 °F 90% 29.90 in 10.0 mi Calm Calm - N/A   Mostly Cloudy
1:54 AM 75.9 °F 71.1 °F 85% 29.92 in 10.0 mi Variable 3.5 mph - N/A   Overcast
2:05 AM 75.0 °F 71.1 °F 87% 29.92 in 4.0 mi NNE 5.8 mph - 0.05 in Rain , Thunderstorm Thunderstorms and Rain
2:20 AM 73.9 °F 72.0 °F 93% 29.92 in 9.0 mi NE 5.8 mph - 0.05 in   Mostly Cloudy
2:54 AM 73.0 °F 70.0 °F 90% 29.84 in 10.0 mi ENE 8.1 mph - 0.08 in Rain Light Rain
3:54 AM 72.0 °F 70.0 °F 93% 29.84 in 8.0 mi Calm Calm - 0.01 in   Partly Cloudy
4:54 AM 71.1 °F 70.0 °F 96% 29.85 in 6.0 mi Calm Calm - N/A   Clear
5:54 AM 70.0 °F 68.0 °F 93% 29.86 in 7.0 mi ESE 4.6 mph - N/A   Clear
6:54 AM 71.1 °F 68.0 °F 90% 29.87 in 9.0 mi Calm Calm - N/A   Clear
7:54 AM 73.0 °F 69.1 °F 87% 29.87 in 10.0 mi Variable 4.6 mph - N/A   Partly Cloudy
8:54 AM 78.1 °F 69.1 °F 74% 29.86 in 10.0 mi ENE 5.8 mph - N/A   Partly Cloudy
9:54 AM 78.1 °F 69.1 °F 74% 29.83 in 10.0 mi Variable 3.5 mph - N/A   Scattered Clouds
10:54 AM 77.0 °F 71.1 °F 82% 29.82 in 8.0 mi Calm Calm - 0.00 in Rain Light Rain
11:24 AM 75.9 °F 72.0 °F 87% 29.85 in 1.8 mi North 3.5 mph - 0.04 in Rain Heavy Rain
11:38 AM 75.0 °F 72.0 °F 90% 29.84 in 3.0 mi ENE 3.5 mph - 0.15 in Rain Light Rain
11:54 AM 75.0 °F 72.0 °F 90% 29.81 in 4.0 mi Calm Calm - 0.19 in Rain Light Rain
11:59 AM 73.9 °F 71.1 °F 91% 29.84 in 1.8 mi Calm Calm - 0.01 in Rain Heavy Rain
12:06 PM 73.9 °F 71.1 °F 91% 29.84 in 1.0 mi Calm Calm - 0.06 in Rain Heavy Rain
12:22 PM 73.9 °F 72.0 °F 93% 29.84 in 3.0 mi North 4.6 mph - 0.16 in Rain Rain
12:31 PM 73.0 °F 71.1 °F 93% 29.84 in 4.0 mi NNE 3.5 mph - 0.18 in Rain Rain
12:54 PM 73.0 °F 70.0 °F 90% 29.81 in 4.0 mi North 4.6 mph - 0.20 in Rain Light Rain
1:54 PM 72.0 °F 69.1 °F 91% 29.79 in 8.0 mi WNW 5.8 mph - 0.02 in   Overcast
2:54 PM 72.0 °F 69.1 °F 91% 29.78 in 8.0 mi Variable 3.5 mph - 0.00 in   Overcast
3:18 PM 72.0 °F 68.0 °F 87% 29.79 in 9.0 mi WNW 8.1 mph - N/A Thunderstorm Overcast
3:33 PM 70.0 °F 66.9 °F 90% 29.79 in 4.0 mi NW 3.5 mph - 0.01 in Rain Light Rain
3:48 PM 69.8 °F 66.2 °F 88% 29.79 in 1.8 mi WSW 6.9 mph - 0.03 in Rain Heavy Rain
3:54 PM 68.0 °F 66.0 °F 93% 29.77 in 0.5 mi WNW 9.2 mph - 0.07 in Fog , Rain Heavy Rain
4:08 PM 66.9 °F 66.0 °F 97% 29.79 in 0.5 mi SSW 5.8 mph - 0.51 in Fog , Rain , Thunderstorm Heavy Thunderstorms and Rain
4:23 PM 66.9 °F 64.9 °F 93% 29.78 in 1.0 mi SW 4.6 mph - 0.82 in Rain , Thunderstorm Heavy Thunderstorms and Rain
4:39 PM 66.9 °F 66.0 °F 97% 29.79 in 2.0 mi SW 5.8 mph - 0.93 in Rain Light Rain
4:43 PM 66.9 °F 64.9 °F 93% 29.79 in 5.0 mi SW 4.6 mph - 0.93 in Rain Light Rain
4:51 PM 66.2 °F 66.2 °F 100% 29.79 in 1.0 mi WSW 4.6 mph - 0.93 in Rain Light Rain
4:54 PM 66.9 °F 66.0 °F 97% 29.76 in 1.0 mi Variable 3.5 mph - 0.93 in Rain Heavy Rain
5:27 PM 66.9 °F 66.0 °F 97% 29.78 in 2.5 mi SSW 3.5 mph - 0.14 in Rain Rain
5:44 PM 66.9 °F 66.0 °F 97% 29.78 in 3.0 mi WSW 6.9 mph - 0.19 in Rain Rain
5:54 PM 66.9 °F 66.0 °F 97% 29.76 in 2.0 mi Calm Calm - 0.21 in Rain Rain
6:51 PM 68.0 °F 66.2 °F 94% 29.78 in 2.0 mi Calm Calm - 0.06 in Rain Light Rain
6:54 PM 68.0 °F 66.0 °F 93% 29.75 in 2.0 mi Calm Calm - 0.06 in Rain Light Rain
7:01 PM 68.0 °F 66.0 °F 93% 29.78 in 4.0 mi West 3.5 mph - 0.01 in Rain Rain
7:54 PM 68.0 °F 66.0 °F 93% 29.77 in 6.0 mi WNW 8.1 mph - 0.08 in Rain Light Rain
8:54 PM 66.9 °F 64.0 °F 90% 29.80 in 10.0 mi Variable 3.5 mph - 0.03 in   Overcast
9:54 PM 66.9 °F 64.0 °F 90% 29.81 in 10.0 mi North 4.6 mph - 0.00 in   Overcast
10:05 PM 66.9 °F 63.0 °F 87% 29.83 in 10.0 mi North 6.9 mph - N/A   Overcast
10:54 PM 66.9 °F 63.0 °F 87% 29.81 in 10.0 mi NW 5.8 mph - N/A   Overcast
11:54 PM 66.0 °F 64.0 °F 93% 29.81 in 7.0 mi NNW 4.6 mph - N/A   Overcast